CZ-3C DEB, 39356

Orbit data source: Space-Track

CZ-3C DEB, 39356 is space debris in HEO originally from a launch on Sun, 31 Oct 2010 UTC launched from the Xichang Space Center, China (XSC). Debris objects in space refer to the collection of defunct objects orbiting the Earth. Examples of debris include non-operational satellites, rocket bodies, and fragments generated from explosions, collisions, or faulty payload assembly.

Loading next visibility...
Identifier
39356, 2010-057W
Orbit
HEO
Country
Flag of CNCN / PRC
Related business
Manufacturer
CALT
Mission
Spacecraft
Bus & Motor
Unknown
Mass
Unknown
Launch date (UTC)
2010-10-31 (16 years ago)
Launch vehicle
Unknown
Launch site
Xichang Space Center, China (XSC)
Object type
Payload
Rocket body
Debris
Shape & HBR
Unknown shape, 0.3 m
Radar Cross Section
Medium (>0.1 m² and <1 m²)

Expand to show TLE details & history
Last TLE update: 2 days ago

TLE from 2 days ago
0 CZ-3C DEB
1 39356U 10057W   26170.81924189  .00000163  00000-0  12033-2 0  9998
2 39356  20.5707 303.9083 7126348  72.6535 349.0892  2.36942085106319
Epoch: 2026-06-19T19:39Z
TLE epoch observation values (Epoch: 2026-06-19T19:39:42.499Z)
Latitude
0.001°
Longitude
100.954°
Altitude
3,287.05 km
Speed
8.106 km/s
True Right ascension
20h 15m 41s
True Declination
0° 00' 04"
Sunlit
Object was in daylight at epoch
Visualization orbit readout
Latitude
Unknown
Longitude
Unknown
Altitude
Unknown
Speed
Unknown
Apparent Right ascension
Unknown
Apparent Declination
Unknown
Sunlit
N/A
Visualization observer readout
Local Sidereal Time
20:41:27
Azimuth
Unknown
Elevation
Unknown
Doppler factor
Unknown
Orbital elements
Apogee altitude
34,333.508 km
Perigee altitude
452.922 km
Semi-major axis
23,771.352 km
Eccentricity
0.71263
Inclination
20.5707°
RAAN
303.9083°
Arg. of periapsis
72.6535°
True anomaly
287.61441°
Mean anomaly
349.0892°
Eccentric anomaly
326.63097°
Mean motion
0.59219 °/min
Orbital period
607.91 mins
BSTAR
0.0012033
Loading maneuver chart data...
Computing Atmospheric mass density...
Loading historical data...
Loading historical data...
Loading historical data...
Loading historical data...
Loading historical data...
Loading historical data...
Loading historical data...

Documentation

Showing up to 5 results
|